THORAD DELTA 1 DEB, 37148

Orbit data source: Space-Track

THORAD DELTA 1 DEB, 37148 is space debris in SSO originally from a launch on Fri, 15 Nov 1974 UTC launched from the Air Force Western Test Range (AFWTR). Debris objects in space refer to the collection of defunct objects orbiting the Earth. Examples of debris include non-operational satellites, rocket bodies, and fragments generated from explosions, collisions, or faulty payload assembly.

Loading next visibility...
Identifier
37148, 1974-089FH
Orbit
SSO
Country
Flag of USUS
Related business
Manufacturer
Unknown
Mission
Spacecraft
Bus & Motor
Unknown
Mass
Unknown
Launch date (UTC)
1974-11-15 (51 years ago)
Launch vehicle
Unknown
Launch site
Air Force Western Test Range (AFWTR)
Object type
Payload
Rocket body
Debris
Shape & HBR
Unknown shape, 0.1 m
Radar Cross Section
Small (<0.1 m²)

Expand to show TLE details & history
Last TLE update: 11 hours ago

TLE from 11 hours ago
0 THORAD DELTA 1 DEB
1 37148U 74089FH  26035.35558409  .00034813  00000-0  13763-1 0  9996
2 37148 101.6932 183.8241 0015584 187.4356 227.3166 14.28749641777667
Epoch: 2026-02-04T08:32Z
TLE epoch observation values (Epoch: 2026-02-04T08:32:02.465Z)
Latitude
53.08295°
Longitude
-94.61326°
Altitude
812.031 km
Speed
7.448 km/s
True Right ascension
11h 11m 40s
True Declination
52° 55' 08"
Sunlit
Object was in full shadow at epoch
Visualization orbit readout
Latitude
Unknown
Longitude
Unknown
Altitude
Unknown
Speed
Unknown
Apparent Right ascension
Unknown
Apparent Declination
Unknown
Sunlit
N/A
Visualization observer readout
Local Sidereal Time
21:24:43
Azimuth
Unknown
Elevation
Unknown
Doppler factor
Unknown
Orbital elements
Apogee altitude
804.403 km
Perigee altitude
782.051 km
Semi-major axis
7,171.364 km
Eccentricity
0.00156
Inclination
101.6932°
RAAN
183.8241°
Arg. of periapsis
187.4356°
True anomaly
227.1855°
Mean anomaly
227.3166°
Eccentric anomaly
227.25103°
Mean motion
3.57388 °/min
Orbital period
100.73 mins
BSTAR
0.013763
Loading maneuver chart data...
Computing Atmospheric mass density...

Documentation

Showing up to 5 results
|